M I D A S
Marine Information and Data Acquisition System
Tripno 775 of the Zeeleeuw from 2004-03-18 07:12:37 to 2004-03-18 11:41:07
Back to CruiseResearch ActivitiesStationsMapUnderway DataData graphs

EquipmentUnitsComments
TimeDGPSUTC
LatitudeDGPSDM.mWGS84
LongitudeDGPSDM.mWGS84
SpeedMeteo Stationm/sRelative wind speed
DirectionMeteo StationdegRelative wind direction
TemperatureMeteo Stationdeg CelciusAir temperature
PressureMeteo StationPaAtmospheric pressure
HumidityMeteo Station%Relative humidity
Missing or incorrect values are displayed as -999
Metereological data collected by the RV Zeeleeuw from 2004-03-18 07:12:37 to 2004-03-18 11:41:07
                                                                                    Next 1000 lines
Time Latitude Longitude Speed Direction Temperature Pressure Humidity
2004-03-18 07:12:45 51°13.623 2°55.984 2.8 135 7.5 102290 95
2004-03-18 07:12:51 51°13.626 2°55.974 2.7 142 7.5 102290 95
2004-03-18 07:12:56 51°13.629 2°55.966 2.9 149 7.5 102290 95
2004-03-18 07:13:01 51°13.632 2°55.957 2.6 151 7.4 102290 95
2004-03-18 07:13:05 51°13.635 2°55.95 2.7 157 7.4 102290 95
2004-03-18 07:13:11 51°13.638 2°55.94 2.5 160 7.4 102280 95
2004-03-18 07:13:16 51°13.641 2°55.931 2.3 144 7.4 102280 95
2004-03-18 07:13:21 51°13.645 2°55.922 1.3 152 7.4 102280 95
2004-03-18 07:13:26 51°13.648 2°55.914 2.3 147 7.4 102280 95
2004-03-18 07:13:31 51°13.651 2°55.905 2.2 146 7.4 102280 95
2004-03-18 07:13:36 51°13.653 2°55.896 1.9 166 7.4 102280 95
2004-03-18 07:13:41 51°13.656 2°55.888 1.6 173 7.4 102280 95
2004-03-18 07:13:45 51°13.658 2°55.881 1.5 147 7.4 102280 95
2004-03-18 07:13:51 51°13.662 2°55.871 1.3 157 7.4 102280 95
2004-03-18 07:13:56 51°13.664 2°55.862 1.2 158 7.4 102280 95
2004-03-18 07:14:01 51°13.667 2°55.853 1.3 161 7.4 102280 95
2004-03-18 07:14:05 51°13.669 2°55.846 2 157 7.4 102280 95
2004-03-18 07:14:11 51°13.672 2°55.835 1.5 140 7.4 102280 95
2004-03-18 07:14:16 51°13.674 2°55.826 1.4 137 7.4 102280 95
2004-03-18 07:14:21 51°13.677 2°55.818 1.5 156 7.4 102280 95
2004-03-18 07:14:25 51°13.678 2°55.811 1.4 159 7.4 102280 95
2004-03-18 07:14:31 51°13.681 2°55.8 1.9 151 7.4 102280 95
2004-03-18 07:14:36 51°13.683 2°55.791 2.1 152 7.4 102280 95
2004-03-18 07:14:41 51°13.685 2°55.783 2.2 154 7.4 102280 95
2004-03-18 07:14:45 51°13.687 2°55.776 2.2 149 7.4 102280 95
2004-03-18 07:14:51 51°13.689 2°55.766 2.3 148 7.4 102280 95
2004-03-18 07:14:56 51°13.691 2°55.758 2.5 143 7.4 102280 95
2004-03-18 07:15:01 51°13.692 2°55.751 2.1 139 7.4 102280 95
2004-03-18 07:15:05 51°13.693 2°55.746 1.7 134 7.4 102280 95
2004-03-18 07:15:11 51°13.694 2°55.741 1.4 129 7.4 102280 95
2004-03-18 07:15:15 51°13.694 2°55.74 1.7 103 7.4 102280 95
2004-03-18 07:15:20 51°13.695 2°55.739 1.6 106 7.4 102280 95
2004-03-18 07:15:25 51°13.695 2°55.739 1.8 102 7.4 102280 95
2004-03-18 07:15:31 51°13.696 2°55.741 1.7 101 7.4 102280 95
2004-03-18 07:15:36 51°13.697 2°55.743 1.5 86 7.4 102280 95
2004-03-18 07:15:40 51°13.698 2°55.746 1.6 83 7.4 102280 95
2004-03-18 07:15:45 51°13.699 2°55.749 1.7 84 7.4 102280 95
2004-03-18 07:15:51 51°13.701 2°55.752 1.8 86 7.4 102280 95
2004-03-18 07:15:56 51°13.702 2°55.752 1.7 114 7.4 102280 95
2004-03-18 07:16:00 51°13.702 2°55.752 1.9 125 7.4 102270 95
2004-03-18 07:16:05 51°13.702 2°55.752 1.9 136 7.4 102270 95
2004-03-18 07:16:09 51°13.702 2°55.751 2.4 139 7.4 102280 95
2004-03-18 07:16:15 51°13.701 2°55.749 2.5 146 7.4 102280 95
2004-03-18 07:16:20 51°13.699 2°55.746 2.8 148 7.4 102270 95
2004-03-18 07:16:24 51°13.698 2°55.744 3.2 149 7.4 102270 95
2004-03-18 07:16:31 51°13.695 2°55.741 3 153 7.4 102270 95
2004-03-18 07:16:36 51°13.693 2°55.739 2.4 152 7.4 102270 95
2004-03-18 07:16:41 51°13.692 2°55.737 2 148 7.4 102280 95
2004-03-18 07:16:45 51°13.692 2°55.737 1.6 158 7.4 102280 95
2004-03-18 07:16:51 51°13.694 2°55.737 2 148 7.4 102270 95
2004-03-18 07:16:56 51°13.696 2°55.737 1.2 157 7.4 102270 95
2004-03-18 07:17:01 51°13.699 2°55.737 0.8 157 7.4 102270 95
2004-03-18 07:17:05 51°13.702 2°55.736 0.5 159 7.4 102270 95
2004-03-18 07:17:11 51°13.706 2°55.734 0.3 159 7.4 102280 95
2004-03-18 07:17:16 51°13.71 2°55.731 0.5 172 7.4 102280 95
2004-03-18 07:17:20 51°13.713 2°55.729 0.6 174 7.4 102270 95
2004-03-18 07:17:25 51°13.716 2°55.726 0.4 179 7.4 102270 95
2004-03-18 07:17:29 51°13.719 2°55.723 0.1 179 7.4 102270 95
2004-03-18 07:17:35 51°13.724 2°55.718 0.1 179 7.4 102270 95
2004-03-18 07:17:40 51°13.729 2°55.714 0.1 178 7.4 102270 95
2004-03-18 07:17:45 51°13.735 2°55.709 0.1 178 7.4 102270 95
2004-03-18 07:17:49 51°13.739 2°55.705 1 288 7.4 102270 95
2004-03-18 07:17:55 51°13.747 2°55.7 1.2 358 7.4 102270 95
2004-03-18 07:18:00 51°13.753 2°55.694 1.1 359 7.4 102270 95
2004-03-18 07:18:05 51°13.76 2°55.689 0.9 2 7.4 102270 95
2004-03-18 07:18:11 51°13.768 2°55.682 1 2 7.4 102270 95
2004-03-18 07:18:15 51°13.774 2°55.677 1.1 3 7.4 102270 95
2004-03-18 07:18:20 51°13.782 2°55.671 1.4 3 7.4 102270 95
2004-03-18 07:18:25 51°13.79 2°55.666 1.3 3 7.4 102270 95
2004-03-18 07:18:29 51°13.797 2°55.661 1.5 4 7.4 102270 95
2004-03-18 07:18:35 51°13.806 2°55.653 1.2 4 7.4 102270 95
2004-03-18 07:18:41 51°13.817 2°55.646 1.3 4 7.5 102270 95
2004-03-18 07:18:45 51°13.824 2°55.641 1.1 14 7.5 102270 95
2004-03-18 07:18:47 51°13.827 2°55.638 1.4 13 7.4 102270 95
2004-03-18 07:18:55 51°13.842 2°55.628 1.4 13 7.4 102270 95
2004-03-18 07:19:00 51°13.851 2°55.622 1 13 7.5 102270 95
2004-03-18 07:19:05 51°13.86 2°55.615 1.2 13 7.5 102270 95
2004-03-18 07:19:11 51°13.87 2°55.607 1.4 12 7.5 102270 95
2004-03-18 07:19:15 51°13.877 2°55.602 1.4 9 7.5 102270 95
2004-03-18 07:19:20 51°13.887 2°55.595 1.6 10 7.5 102270 95
2004-03-18 07:19:25 51°13.896 2°55.588 1.5 9 7.5 102270 95
2004-03-18 07:19:29 51°13.903 2°55.583 1.4 10 7.5 102270 95
2004-03-18 07:19:35 51°13.914 2°55.574 1.5 13 7.5 102270 95
2004-03-18 07:19:40 51°13.923 2°55.568 1.5 13 7.5 102270 95
2004-03-18 07:19:45 51°13.933 2°55.561 1.5 14 7.5 102270 95
2004-03-18 07:19:51 51°13.944 2°55.553 1.5 14 7.5 102270 95
2004-03-18 07:19:55 51°13.952 2°55.548 1.7 13 7.5 102270 95
2004-03-18 07:20:00 51°13.963 2°55.542 1.9 6 7.5 102270 95
2004-03-18 07:20:05 51°13.973 2°55.536 1.7 5 7.5 102270 95
2004-03-18 07:20:11 51°13.985 2°55.528 1.8 5 7.5 102270 95
2004-03-18 07:20:15 51°13.993 2°55.523 1.6 4 7.5 102270 95
2004-03-18 07:20:20 51°14.004 2°55.517 1.7 5 7.5 102270 95
2004-03-18 07:20:25 51°14.014 2°55.511 1.6 4 7.5 102270 95
2004-03-18 07:20:29 51°14.022 2°55.506 1.5 2 7.5 102270 95
2004-03-18 07:20:35 51°14.034 2°55.498 1.4 2 7.5 102270 95
2004-03-18 07:20:40 51°14.044 2°55.492 1.3 2 7.5 102270 95
2004-03-18 07:20:45 51°14.054 2°55.485 1.5 1 7.5 102270 95
2004-03-18 07:20:49 51°14.062 2°55.48 1.6 355 7.5 102270 95
2004-03-18 07:20:55 51°14.075 2°55.472 2.2 342 7.5 102270 95
2004-03-18 07:21:00 51°14.085 2°55.465 2.4 342 7.5 102270 95
2004-03-18 07:21:05 51°14.096 2°55.458 2.5 347 7.5 102270 95
2004-03-18 07:21:11 51°14.109 2°55.449 2.4 345 7.5 102270 95
2004-03-18 07:21:16 51°14.12 2°55.441 2.6 344 7.5 102270 95
2004-03-18 07:21:21 51°14.131 2°55.433 2.4 345 7.5 102270 95
2004-03-18 07:21:25 51°14.141 2°55.425 2.5 349 7.5 102270 95
2004-03-18 07:21:31 51°14.154 2°55.414 2.7 350 7.5 102270 95
2004-03-18 07:21:36 51°14.166 2°55.403 3.2 353 7.5 102270 95
2004-03-18 07:21:40 51°14.175 2°55.394 3.6 349 7.5 102270 95
2004-03-18 07:21:45 51°14.186 2°55.381 3.7 348 7.5 102270 95
2004-03-18 07:21:51 51°14.199 2°55.365 4.4 346 7.5 102270 95
2004-03-18 07:21:56 51°14.21 2°55.351 4.8 350 7.5 102270 95
2004-03-18 07:22:01 51°14.22 2°55.337 3.8 346 7.5 102270 95
2004-03-18 07:22:05 51°14.228 2°55.324 4.2 353 7.5 102270 95
2004-03-18 07:22:11 51°14.24 2°55.305 4 347 7.5 102270 95
2004-03-18 07:22:16 51°14.25 2°55.289 3.8 346 7.5 102270 95
2004-03-18 07:22:21 51°14.259 2°55.271 4.7 350 7.5 102280 95
2004-03-18 07:22:25 51°14.266 2°55.257 4 346 7.5 102280 95
2004-03-18 07:22:31 51°14.277 2°55.236 3.7 344 7.5 102280 95
2004-03-18 07:22:35 51°14.283 2°55.221 4.1 359 7.5 102280 95
2004-03-18 07:22:41 51°14.294 2°55.2 4.2 348 7.5 102280 95
2004-03-18 07:22:45 51°14.301 2°55.185 4.3 350 7.5 102280 95
2004-03-18 07:22:51 51°14.311 2°55.164 4 351 7.5 102280 95
2004-03-18 07:22:55 51°14.318 2°55.149 4 347 7.5 102280 95
2004-03-18 07:23:01 51°14.328 2°55.127 3.9 351 7.5 102280 95
2004-03-18 07:23:05 51°14.334 2°55.111 4 350 7.5 102280 95
2004-03-18 07:23:11 51°14.344 2°55.088 4.4 355 7.5 102280 95
2004-03-18 07:23:15 51°14.35 2°55.072 4.2 354 7.5 102280 95
2004-03-18 07:23:21 51°14.36 2°55.047 4.5 354 7.5 102280 95
2004-03-18 07:23:25 51°14.365 2°55.03 5.2 358 7.5 102280 95
2004-03-18 07:23:29 51°14.37 2°55.011 5.5 357 7.5 102280 95
2004-03-18 07:23:35 51°14.378 2°54.983 5.9 352 7.5 102280 95
2004-03-18 07:23:39 51°14.383 2°54.964 5.9 351 7.5 102280 95
2004-03-18 07:23:45 51°14.39 2°54.935 6 354 7.5 102280 95
2004-03-18 07:23:49 51°14.394 2°54.915 6.7 350 7.5 102270 95
2004-03-18 07:23:56 51°14.4 2°54.879 6.8 352 7.5 102270 95
2004-03-18 07:24:00 51°14.402 2°54.858 6.9 351 7.5 102280 95
2004-03-18 07:24:05 51°14.403 2°54.832 4.4 351 7.5 102280 95
2004-03-18 07:24:10 51°14.403 2°54.805 7.1 351 7.6 102270 95
2004-03-18 07:24:15 51°14.401 2°54.779 7.1 349 7.6 102270 95
2004-03-18 07:24:20 51°14.398 2°54.752 7.6 350 7.5 102270 95
2004-03-18 07:24:25 51°14.394 2°54.726 7.3 350 7.5 102270 95
2004-03-18 07:24:31 51°14.388 2°54.695 7.9 351 7.6 102270 95
2004-03-18 07:24:35 51°14.384 2°54.675 8.1 354 7.6 102270 95
2004-03-18 07:24:40 51°14.376 2°54.65 8.1 352 7.6 102270 95
2004-03-18 07:24:45 51°14.368 2°54.625 7.8 353 7.6 102270 95
2004-03-18 07:24:49 51°14.362 2°54.606 8.1 352 7.6 102260 95
2004-03-18 07:24:55 51°14.351 2°54.577 8 349 7.6 102260 95
2004-03-18 07:25:00 51°14.342 2°54.553 8.2 349 7.6 102260 95
2004-03-18 07:25:05 51°14.333 2°54.529 8.3 352 7.6 102260 95
2004-03-18 07:25:11 51°14.321 2°54.501 8 354 7.6 102260 95
2004-03-18 07:25:15 51°14.314 2°54.481 8.3 355 7.6 102260 95
2004-03-18 07:25:20 51°14.304 2°54.457 8.1 355 7.6 102260 95
2004-03-18 07:25:25 51°14.295 2°54.432 8.2 353 7.6 102260 95
2004-03-18 07:25:31 51°14.284 2°54.401 8.3 351 7.6 102260 95
2004-03-18 07:25:35 51°14.277 2°54.381 8.7 352 7.6 102260 95
2004-03-18 07:25:40 51°14.268 2°54.355 8.8 352 7.6 102260 95
2004-03-18 07:25:45 51°14.259 2°54.329 9 353 7.6 102260 95
2004-03-18 07:25:49 51°14.253 2°54.308 8.9 352 7.6 102260 95
2004-03-18 07:25:55 51°14.243 2°54.276 8.9 353 7.6 102260 95
2004-03-18 07:26:00 51°14.234 2°54.25 8.9 352 7.6 102260 95
2004-03-18 07:26:05 51°14.225 2°54.224 9.6 353 7.6 102260 95
2004-03-18 07:26:09 51°14.218 2°54.203 9.5 349 7.6 102260 95
2004-03-18 07:26:15 51°14.207 2°54.173 9.2 352 7.6 102260 95
2004-03-18 07:26:20 51°14.197 2°54.147 9.3 353 7.6 102260 95
2004-03-18 07:26:25 51°14.187 2°54.122 9.1 352 7.6 102260 95
2004-03-18 07:26:30 51°14.177 2°54.097 9.4 351 7.5 102260 95
2004-03-18 07:26:35 51°14.168 2°54.071 9.4 350 7.5 102260 95
2004-03-18 07:26:40 51°14.158 2°54.046 9.1 352 7.5 102250 95
2004-03-18 07:26:45 51°14.148 2°54.02 9.4 352 7.5 102250 95
2004-03-18 07:26:51 51°14.137 2°53.989 8.9 350 7.5 102260 95
2004-03-18 07:26:55 51°14.13 2°53.969 9.3 355 7.5 102260 95
2004-03-18 07:26:59 51°14.122 2°53.948 9.4 357 7.5 102250 95
2004-03-18 07:27:05 51°14.111 2°53.916 8.3 359 7.5 102250 95
2004-03-18 07:27:10 51°14.102 2°53.89 8.6 355 7.5 102260 95
2004-03-18 07:27:15 51°14.093 2°53.864 8.6 353 7.5 102260 95
2004-03-18 07:27:20 51°14.083 2°53.838 8.7 355 7.5 102260 95
2004-03-18 07:27:25 51°14.074 2°53.813 8.4 357 7.5 102260 95
2004-03-18 07:27:30 51°14.064 2°53.787 8.8 354 7.5 102260 95
2004-03-18 07:27:35 51°14.054 2°53.761 8.7 354 7.5 102260 95
2004-03-18 07:27:40 51°14.045 2°53.735 8.6 350 7.4 102270 95
2004-03-18 07:27:45 51°14.036 2°53.708 8.8 351 7.4 102270 95
2004-03-18 07:27:49 51°14.028 2°53.688 9 352 7.4 102270 95
2004-03-18 07:27:55 51°14.017 2°53.656 9 354 7.4 102270 95
2004-03-18 07:28:00 51°14.007 2°53.63 9.1 355 7.4 102260 95
2004-03-18 07:28:05 51°13.998 2°53.603 8.8 354 7.4 102260 95
2004-03-18 07:28:09 51°13.991 2°53.582 8.9 357 7.4 102260 95
2004-03-18 07:28:15 51°13.98 2°53.55 8.8 356 7.4 102260 95
2004-03-18 07:28:20 51°13.97 2°53.524 9.3 356 7.4 102260 95
2004-03-18 07:28:25 51°13.961 2°53.497 9.9 351 7.4 102260 95
2004-03-18 07:28:31 51°13.949 2°53.465 9 353 7.4 102260 95
2004-03-18 07:28:35 51°13.942 2°53.444 9.1 353 7.4 102260 95
2004-03-18 07:28:40 51°13.932 2°53.417 9.6 355 7.4 102270 95
2004-03-18 07:28:45 51°13.923 2°53.389 9.7 354 7.4 102270 95
2004-03-18 07:28:49 51°13.915 2°53.367 9.3 356 7.4 102260 95
2004-03-18 07:28:55 51°13.904 2°53.335 9.5 357 7.4 102260 95
2004-03-18 07:29:00 51°13.894 2°53.307 9.6 358 7.4 102260 95
2004-03-18 07:29:05 51°13.885 2°53.28 9.3 358 7.4 102260 95
2004-03-18 07:29:09 51°13.877 2°53.258 9.2 357 7.3 102260 95
2004-03-18 07:29:15 51°13.865 2°53.224 9.6 358 7.3 102260 95
2004-03-18 07:29:20 51°13.856 2°53.197 9.6 356 7.3 102260 95
2004-03-18 07:29:25 51°13.846 2°53.169 9.8 356 7.3 102260 95
2004-03-18 07:29:31 51°13.834 2°53.136 9.5 355 7.3 102260 95
2004-03-18 07:29:35 51°13.826 2°53.114 9.6 358 7.3 102260 95
2004-03-18 07:29:41 51°13.813 2°53.081 9.4   7.3 102270 95
2004-03-18 07:29:45 51°13.806 2°53.058 9.3 2 7.3 102270 95
2004-03-18 07:29:49 51°13.798 2°53.036 9.1 1 7.3 102270 95
2004-03-18 07:29:55 51°13.786 2°53.003 9.7 358 7.3 102270 95
2004-03-18 07:30:00 51°13.776 2°52.975 10.3 359 7.3 102260 95
2004-03-18 07:30:05 51°13.766 2°52.947 10.1 358 7.3 102260 95
2004-03-18 07:30:11 51°13.755 2°52.913 9.5 2 7.3 102270 95
2004-03-18 07:30:15 51°13.747 2°52.89 10.1 1 7.3 102270 95
2004-03-18 07:30:21 51°13.735 2°52.856 10.3 2 7.3 102270 95
2004-03-18 07:30:25 51°13.727 2°52.834 9.8   7.3 102270 95
2004-03-18 07:30:29 51°13.719 2°52.811 9.8 2 7.3 102260 95
2004-03-18 07:30:35 51°13.708 2°52.777 9.6   7.3 102260 95
2004-03-18 07:30:41 51°13.696 2°52.743 9.6 2 7.3 102240 95
2004-03-18 07:30:45 51°13.688 2°52.721 9.9 4 7.3 102240 95
2004-03-18 07:30:49 51°13.68 2°52.698 10.1 3 7.3 102240 95
2004-03-18 07:30:55 51°13.669 2°52.664 10.1 4 7.3 102240 95
2004-03-18 07:31:00 51°13.659 2°52.635 10.2 3 7.3 102240 95
2004-03-18 07:31:05 51°13.65 2°52.606 10 6 7.3 102240 95
2004-03-18 07:31:10 51°13.64 2°52.578 10.1 6 7.3 102240 95
2004-03-18 07:31:15 51°13.631 2°52.549 10.3 3 7.3 102240 95
2004-03-18 07:31:20 51°13.621 2°52.521 9.8 5 7.2 102240 95
2004-03-18 07:31:25 51°13.611 2°52.493 10.1 5 7.2 102240 95
2004-03-18 07:31:31 51°13.599 2°52.458 10.4 5 7.2 102250 95
2004-03-18 07:31:35 51°13.592 2°52.435 10.5 7 7.2 102250 95
2004-03-18 07:31:39 51°13.584 2°52.413 10.8 9 7.2 102250 95
2004-03-18 07:31:45 51°13.572 2°52.378 10.7 8 7.2 102250 95
2004-03-18 07:31:50 51°13.562 2°52.35 10.4 6 7.2 102250 95
2004-03-18 07:31:55 51°13.553 2°52.321 10.7 6 7.2 102250 95
2004-03-18 07:32:00 51°13.544 2°52.292 10.5 6 7.2 102250 95
2004-03-18 07:32:05 51°13.534 2°52.263 10.2 8 7.2 102250 95
2004-03-18 07:32:09 51°13.526 2°52.24 10.5 8 7.2 102250 95
2004-03-18 07:32:15 51°13.515 2°52.206 10.5 9 7.2 102250 95
2004-03-18 07:32:20 51°13.505 2°52.177 10.7 7 7.2 102250 95
2004-03-18 07:32:25 51°13.495 2°52.148 10.4 10 7.2 102250 95
2004-03-18 07:32:29 51°13.488 2°52.125 10.5 9 7.2 102250 95
2004-03-18 07:32:35 51°13.476 2°52.091 10.8 10 7.2 102250 95
2004-03-18 07:32:40 51°13.466 2°52.062 10.7 10 7.2 102250 95
2004-03-18 07:32:45 51°13.457 2°52.034 10.8 11 7.2 102250 95
2004-03-18 07:32:49 51°13.449 2°52.011 10.7 9 7.2 102250 95
2004-03-18 07:32:55 51°13.438 2°51.976 10.9 9 7.2 102250 95
2004-03-18 07:33:00 51°13.429 2°51.947 10.5 12 7.2 102250 95
2004-03-18 07:33:05 51°13.419 2°51.918 10.8 9 7.2 102250 95
2004-03-18 07:33:11 51°13.408 2°51.884 10.8 10 7.2 102250 95
2004-03-18 07:33:15 51°13.4 2°51.861 10.8 10 7.2 102250 95
2004-03-18 07:33:20 51°13.39 2°51.832 10.9 10 7.1 102250 95
2004-03-18 07:33:25 51°13.381 2°51.804 10.2 11 7.1 102250 95
2004-03-18 07:33:31 51°13.369 2°51.769 10.8 10 7.1 102250 95
2004-03-18 07:33:35 51°13.361 2°51.746 10.5 9 7.1 102250 95
2004-03-18 07:33:41 51°13.349 2°51.712 10.9 11 7.1 102250 95
2004-03-18 07:33:45 51°13.341 2°51.689 10.6 13 7.1 102250 95
2004-03-18 07:33:51 51°13.33 2°51.655 10.2 13 7.1 102250 95
2004-03-18 07:33:55 51°13.322 2°51.632 10.6 12 7.1 102250 95
2004-03-18 07:34:00 51°13.312 2°51.603 10.2 10 7.1 102250 95
2004-03-18 07:34:05 51°13.303 2°51.575 10.8 10 7.1 102250 95
2004-03-18 07:34:09 51°13.295 2°51.552 10.7 9 7.1 102250 95
2004-03-18 07:34:15 51°13.283 2°51.518 10.4 13 7.1 102250 95
2004-03-18 07:34:21 51°13.272 2°51.483 10.3 13 7 102250 95
2004-03-18 07:34:25 51°13.264 2°51.461 10.1 11 7 102250 95
2004-03-18 07:34:29 51°13.256 2°51.438 10.7 10 7 102250 95
2004-03-18 07:34:35 51°13.244 2°51.403 10.4 10 7 102250 95
2004-03-18 07:34:41 51°13.233 2°51.369 10.3 10 7 102250 95
2004-03-18 07:34:45 51°13.225 2°51.346 10.3 11 7 102250 95
2004-03-18 07:34:49 51°13.217 2°51.323 10 13 7 102250 95
2004-03-18 07:34:56 51°13.204 2°51.283 10.5 11 7 102250 95
2004-03-18 07:34:59 51°13.198 2°51.266 10.2 12 7 102250 95
2004-03-18 07:35:05 51°13.186 2°51.232 10.5 11 7 102250 95
2004-03-18 07:35:11 51°13.174 2°51.197 10.2 11 7 102250 95
2004-03-18 07:35:15 51°13.166 2°51.175 9.9 11 7 102250 95
2004-03-18 07:35:20 51°13.156 2°51.146 9.9 12 7 102250 95
2004-03-18 07:35:25 51°13.146 2°51.118 10.1 12 7 102250 95
2004-03-18 07:35:31 51°13.135 2°51.083 9.8 13 7 102240 95
2004-03-18 07:35:35 51°13.128 2°51.06 10.2 12 7 102240 95
2004-03-18 07:35:40 51°13.118 2°51.032 10.4 12 7 102250 95
2004-03-18 07:35:45 51°13.108 2°51.003 10.1 12 7 102250 95
2004-03-18 07:35:50 51°13.099 2°50.974 10.2 13 7 102250 95
2004-03-18 07:35:55 51°13.089 2°50.946 10.4 10 7 102250 95
2004-03-18 07:36:00 51°13.08 2°50.917 10.1 12 7 102240 95
2004-03-18 07:36:05 51°13.07 2°50.889 9.8 12 7 102240 95
2004-03-18 07:36:09 51°13.062 2°50.866 10.1 11 7 102240 95
2004-03-18 07:36:15 51°13.051 2°50.832 10.3 9 7 102240 95
2004-03-18 07:36:20 51°13.041 2°50.803 10.3 9 7 102240 95
2004-03-18 07:36:25 51°13.032 2°50.775 10 9 7 102240 95
2004-03-18 07:36:31 51°13.02 2°50.741 10.3 10 6.9 102240 95
2004-03-18 07:36:35 51°13.013 2°50.718 10.1 9 6.9 102240 95
2004-03-18 07:36:41 51°13.002 2°50.684 9.8 10 6.9 102240 95
2004-03-18 07:36:45 51°12.994 2°50.661 10 9 6.9 102240 95
2004-03-18 07:36:50 51°12.985 2°50.633 10 10 6.9 102240 95
2004-03-18 07:36:55 51°12.975 2°50.604 10 8 6.9 102240 95
2004-03-18 07:37:00 51°12.966 2°50.576 10.1 8 6.9 102240 95
2004-03-18 07:37:05 51°12.956 2°50.548 10.2 8 6.9 102240 95
2004-03-18 07:37:10 51°12.947 2°50.519 9.6 7 6.9 102240 95
2004-03-18 07:37:15 51°12.937 2°50.491 9.9 6 6.9 102240 95
2004-03-18 07:37:21 51°12.925 2°50.457 9.6 6 7 102240 95
2004-03-18 07:37:25 51°12.918 2°50.435 9.4 7 7 102240 95
2004-03-18 07:37:30 51°12.908 2°50.406 9.5 7 7 102240 95
2004-03-18 07:37:35 51°12.898 2°50.378 9.6 8 7 102240 95
2004-03-18 07:37:41 51°12.887 2°50.344 9.6 7 6.9 102240 95
2004-03-18 07:37:45 51°12.879 2°50.321 9.7 7 6.9 102240 95
2004-03-18 07:37:50 51°12.87 2°50.292 9.3 8 6.9 102240 95
2004-03-18 07:37:55 51°12.86 2°50.264 9.6 9 6.9 102240 95
2004-03-18 07:38:00 51°12.851 2°50.235 9.7 10 6.9 102240 95
2004-03-18 07:38:05 51°12.841 2°50.207 10.1 9 6.9 102240 95
2004-03-18 07:38:10 51°12.831 2°50.179 9.6 9 6.9 102240 95
2004-03-18 07:38:15 51°12.822 2°50.15 9.3 8 6.9 102240 95
2004-03-18 07:38:21 51°12.81 2°50.116 9.7 8 6.9 102240 95
2004-03-18 07:38:25 51°12.803 2°50.093 9.5 7 6.9 102240 95
2004-03-18 07:38:30 51°12.793 2°50.065 9.5 8 6.9 102240 95
2004-03-18 07:38:35 51°12.784 2°50.037 9.2 8 6.9 102240 95
2004-03-18 07:38:40 51°12.774 2°50.008 9.7 9 6.9 102240 95
2004-03-18 07:38:45 51°12.765 2°49.98 9.6 8 6.9 102240 95
2004-03-18 07:38:50 51°12.756 2°49.951 9.7 8 6.9 102240 95
2004-03-18 07:38:55 51°12.746 2°49.923 9.6 9 6.9 102240 95
2004-03-18 07:39:01 51°12.735 2°49.888 10 9 6.9 102240 95
2004-03-18 07:39:05 51°12.727 2°49.866 9.7 11 6.9 102240 95
2004-03-18 07:39:09 51°12.719 2°49.843 9.4 8 6.9 102240 95
2004-03-18 07:39:16 51°12.706 2°49.803 9.5 9 6.9 102240 95
2004-03-18 07:39:20 51°12.699 2°49.78 9.8 10 6.9 102240 95
2004-03-18 07:39:25 51°12.689 2°49.752 9.7 9 6.9 102240 95
2004-03-18 07:39:31 51°12.678 2°49.718 9.6 8 6.9 102240 95
2004-03-18 07:39:35 51°12.67 2°49.695 9.8 9 6.9 102240 95
2004-03-18 07:39:39 51°12.662 2°49.673 9.7 7 6.9 102240 95
2004-03-18 07:39:45 51°12.651 2°49.638 9.5 9 6.9 102240 95
2004-03-18 07:39:49 51°12.644 2°49.616 9.7 8 6.9 102240 95
2004-03-18 07:39:55 51°12.632 2°49.581 9.9 10 6.9 102240 95
2004-03-18 07:40:00 51°12.623 2°49.552 9.6 10 6.9 102240 95
2004-03-18 07:40:05 51°12.613 2°49.524 9.4 11 6.9 102240 95
2004-03-18 07:40:11 51°12.602 2°49.491 9.5 11 6.9 102240 95
2004-03-18 07:40:15 51°12.594 2°49.468 9.4 10 6.9 102240 95
2004-03-18 07:40:20 51°12.584 2°49.439 9.7 11 6.9 102240 95
2004-03-18 07:40:25 51°12.575 2°49.411 9.7 12 6.9 102240 95
2004-03-18 07:40:29 51°12.567 2°49.388 9.8 11 6.9 102240 95
2004-03-18 07:40:35 51°12.556 2°49.353 9.2 11 6.9 102240 95
2004-03-18 07:40:40 51°12.547 2°49.325 9.5 12 6.9 102240 95
2004-03-18 07:40:45 51°12.537 2°49.296 9.3 11 6.9 102240 95
2004-03-18 07:40:49 51°12.53 2°49.274 9.3 13 6.9 102240 95
2004-03-18 07:40:55 51°12.518 2°49.239 9.3 12 6.9 102240 95
2004-03-18 07:40:59 51°12.51 2°49.217 9.4 12 6.9 102240 95
2004-03-18 07:41:05 51°12.499 2°49.182 9.2 12 6.9 102240 95
2004-03-18 07:41:10 51°12.49 2°49.154 9.2 10 6.9 102240 95
2004-03-18 07:41:15 51°12.48 2°49.125 9.2 13 6.9 102240 95
2004-03-18 07:41:20 51°12.471 2°49.097 8.9 12 6.9 102240 95
2004-03-18 07:41:25 51°12.461 2°49.068 9 12 6.9 102240 95
2004-03-18 07:41:31 51°12.45 2°49.034 9 11 6.9 102240 95
2004-03-18 07:41:35 51°12.442 2°49.011 8.7 12 6.9 102240 95
2004-03-18 07:41:40 51°12.433 2°48.982 9.3 13 6.9 102240 95
2004-03-18 07:41:45 51°12.424 2°48.954 9 12 6.9 102240 95
2004-03-18 07:41:50 51°12.414 2°48.925 8.7 13 6.9 102240 95
2004-03-18 07:41:55 51°12.405 2°48.896 9 12 6.9 102240 95
2004-03-18 07:42:00 51°12.395 2°48.868 8.8 13 6.9 102240 95
2004-03-18 07:42:05 51°12.386 2°48.839 9 12 6.9 102240 95
2004-03-18 07:42:09 51°12.378 2°48.817 8.8 13 6.9 102230 95
2004-03-18 07:42:15 51°12.367 2°48.782 9.1 12 6.9 102230 95
2004-03-18 07:42:20 51°12.357 2°48.754 9.3 10 6.9 102240 95
2004-03-18 07:42:25 51°12.348 2°48.725 9.2 9 6.9 102240 95
2004-03-18 07:42:30 51°12.338 2°48.697 9.2 8 6.9 102240 95
2004-03-18 07:42:35 51°12.329 2°48.668 9.3 7 6.9 102240 95
2004-03-18 07:42:40 51°12.32 2°48.64 9.5 5 6.9 102230 95
2004-03-18 07:42:45 51°12.31 2°48.611 9.3 5 6.9 102230 95
2004-03-18 07:42:50 51°12.302 2°48.582 9.4 5 6.8 102230 95
2004-03-18 07:42:55 51°12.293 2°48.553 4.4 4 6.8 102230 95
2004-03-18 07:43:01 51°12.283 2°48.518 9.6 5 6.9 102230 95
2004-03-18 07:43:05 51°12.276 2°48.495 9.6 5 6.9 102230 95
2004-03-18 07:43:09 51°12.269 2°48.472 9.4 6 6.9 102230 95
2004-03-18 07:43:16 51°12.256 2°48.432 9.4 6 6.9 102230 95
2004-03-18 07:43:19 51°12.251 2°48.414 9.1 5 6.9 102230 95
2004-03-18 07:43:25 51°12.24 2°48.38 8.8 6 6.9 102230 95
2004-03-18 07:43:30 51°12.231 2°48.351 9 6 6.9 102230 95
2004-03-18 07:43:35 51°12.222 2°48.323 9.1 6 6.9 102230 95
2004-03-18 07:43:41 51°12.211 2°48.288 8.9 7 6.9 102230 95
2004-03-18 07:43:45 51°12.204 2°48.265 8.8 7 6.9 102230 95
2004-03-18 07:43:49 51°12.197 2°48.242 8.9 6 6.9 102230 95
2004-03-18 07:43:55 51°12.187 2°48.208 8.8 6 6.9 102230 95
2004-03-18 07:43:59 51°12.18 2°48.184 9 5 6.9 102230 95
2004-03-18 07:44:05 51°12.17 2°48.15 9 7 6.9 102230 95
2004-03-18 07:44:11 51°12.159 2°48.115 9 4 6.9 102230 95
2004-03-18 07:44:15 51°12.153 2°48.092 8.8 5 6.9 102230 95
2004-03-18 07:44:20 51°12.144 2°48.063 8.9 6 6.9 102230 95
2004-03-18 07:44:25 51°12.135 2°48.034 8.6 3 6.9 102230 95
2004-03-18 07:44:29 51°12.128 2°48.011 8.8 5 6.9 102240 95
2004-03-18 07:44:35 51°12.117 2°47.977 8.5 5 6.9 102240 95
2004-03-18 07:44:40 51°12.109 2°47.948 8.7 6 6.9 102240 95
2004-03-18 07:44:45 51°12.1 2°47.919 8.8 6 6.9 102240 95
2004-03-18 07:44:50 51°12.091 2°47.89 8.5 5 6.9 102230 95
2004-03-18 07:44:55 51°12.082 2°47.861 8.5 6 6.9 102230 95
2004-03-18 07:45:00 51°12.074 2°47.833 8.5 4 6.9 102230 95
2004-03-18 07:45:05 51°12.065 2°47.804 8.3 5 6.9 102230 95
2004-03-18 07:45:11 51°12.055 2°47.769 8.3 4 6.9 102230 95
2004-03-18 07:45:15 51°12.048 2°47.746 8.3 5 6.9 102230 95
2004-03-18 07:45:20 51°12.039 2°47.717 8.4 4 6.9 102230 95
2004-03-18 07:45:25 51°12.031 2°47.688 8 4 6.9 102230 95
2004-03-18 07:45:31 51°12.02 2°47.653 8.4 4 6.9 102230 95
2004-03-18 07:45:35 51°12.013 2°47.63 8.3 5 6.9 102230 95
2004-03-18 07:45:40 51°12.005 2°47.601 8.4 4 6.9 102230 95
2004-03-18 07:45:45 51°11.996 2°47.572 8.5 4 6.9 102230 95
2004-03-18 07:45:51 51°11.986 2°47.537 8.5 4 6.9 102230 95
2004-03-18 07:45:55 51°11.979 2°47.514 8.5 5 6.9 102230 95
2004-03-18 07:46:00 51°11.97 2°47.485 8.2 4 6.9 102230 95
2004-03-18 07:46:05 51°11.962 2°47.456 8.4 4 6.9 102230 95
2004-03-18 07:46:10 51°11.953 2°47.427 8.4 3 6.9 102230 95
2004-03-18 07:46:15 51°11.944 2°47.399 8.4 4 6.9 102230 95
2004-03-18 07:46:20 51°11.935 2°47.37 8.5 2 6.9 102230 95
2004-03-18 07:46:25 51°11.926 2°47.341 8.5 1 6.9 102230 95
2004-03-18 07:46:29 51°11.919 2°47.318 8.5 1 6.9 102230 95
2004-03-18 07:46:35 51°11.909 2°47.284 8.2 360 6.9 102230 95
2004-03-18 07:46:40 51°11.9 2°47.255 8.5 1 6.9 102230 95
2004-03-18 07:46:45 51°11.891 2°47.226 8.5 359 6.9 102230 95
2004-03-18 07:46:51 51°11.88 2°47.192 8.3 360 6.9 102230 95
2004-03-18 07:46:55 51°11.873 2°47.169 8.4 359 6.9 102230 95
2004-03-18 07:47:00 51°11.865 2°47.14 8.3 359 6.9 102230 95
2004-03-18 07:47:05 51°11.856 2°47.111 8.2 358 6.9 102230 95
2004-03-18 07:47:09 51°11.849 2°47.088 8.6 358 6.9 102230 95
2004-03-18 07:47:15 51°11.838 2°47.053 8.2 359 6.9 102230 95
2004-03-18 07:47:21 51°11.828 2°47.018 8.4 359 6.9 102230 95
2004-03-18 07:47:25 51°11.821 2°46.995 8.7 358 6.9 102230 95
2004-03-18 07:47:30 51°11.812 2°46.966 8.3 359 6.9 102230 95
2004-03-18 07:47:35 51°11.803 2°46.937 8.4 357 6.9 102230 95
2004-03-18 07:47:40 51°11.795 2°46.908 8.7 357 6.9 102230 95
2004-03-18 07:47:45 51°11.786 2°46.879 8.4 357 6.9 102230 95
2004-03-18 07:47:49 51°11.78 2°46.856 8.6 357 6.9 102230 95
2004-03-18 07:47:55 51°11.77 2°46.821 8.9 358 6.9 102230 95
2004-03-18 07:48:00 51°11.763 2°46.791 8.7 358 6.9 102230 95
2004-03-18 07:48:05 51°11.755 2°46.761 8.8 358 6.9 102230 95
2004-03-18 07:48:11 51°11.747 2°46.725 8.9 357 6.9 102230 95
2004-03-18 07:48:15 51°11.741 2°46.702 9.1 357 6.9 102230 95
2004-03-18 07:48:20 51°11.733 2°46.672 9.1 357 6.9 102230 95
2004-03-18 07:48:25 51°11.725 2°46.642 9.1 356 6.9 102230 95
2004-03-18 07:48:29 51°11.719 2°46.618 9 357 6.9 102230 95
2004-03-18 07:48:35 51°11.71 2°46.583 9.1 356 6.9 102230 95
2004-03-18 07:48:40 51°11.702 2°46.553 9.1 357 6.9 102230 95
2004-03-18 07:48:45 51°11.695 2°46.524 9.1 356 6.9 102230 95
2004-03-18 07:48:49 51°11.689 2°46.5 8.8 355 7 102230 95
2004-03-18 07:48:55 51°11.68 2°46.465 8.7 356 7 102230 95
2004-03-18 07:49:00 51°11.673 2°46.435 9.2 356 6.9 102230 95
2004-03-18 07:49:05 51°11.666 2°46.405 8.8 356 6.9 102230 95
2004-03-18 07:49:09 51°11.661 2°46.381 8.7 356 7 102240 95
2004-03-18 07:49:15 51°11.652 2°46.346 8.8 357 7 102240 95
2004-03-18 07:49:21 51°11.644 2°46.311 9 356 7 102240 95
2004-03-18 07:49:25 51°11.638 2°46.287 8.6 357 7 102240 95
2004-03-18 07:49:29 51°11.633 2°46.263 8.9 357 7 102240 95
2004-03-18 07:49:35 51°11.624 2°46.227 8.7 358 7 102240 95
2004-03-18 07:49:40 51°11.617 2°46.198 8.6 356 6.9 102240 95
2004-03-18 07:49:45 51°11.61 2°46.168 9.2 356 6.9 102240 95
2004-03-18 07:49:50 51°11.602 2°46.138 8.9 358 6.9 102240 95
2004-03-18 07:49:55 51°11.594 2°46.108 8.7 356 6.9 102240 95
2004-03-18 07:50:00 51°11.586 2°46.079 8.8 357 6.9 102240 95
2004-03-18 07:50:05 51°11.577 2°46.05 8.8 356 6.9 102240 95
2004-03-18 07:50:09 51°11.57 2°46.026 8.6 357 6.9 102240 95
2004-03-18 07:50:15 51°11.56 2°45.991 8.5 355 6.9 102240 95
2004-03-18 07:50:20 51°11.553 2°45.962 8.9 355 7 102240 95
2004-03-18 07:50:25 51°11.545 2°45.932 8.8 354 7 102240 95
2004-03-18 07:50:30 51°11.538 2°45.903 8.9 354 7 102240 95
2004-03-18 07:50:35 51°11.53 2°45.873 8.6 354 7 102240 95
2004-03-18 07:50:41 51°11.521 2°45.837 8.6 353 7 102240 95
2004-03-18 07:50:45 51°11.515 2°45.814 8.8 353 7 102240 95
2004-03-18 07:50:48 51°11.511 2°45.796 8.3 353 6.9 102240 95
2004-03-18 07:50:56 51°11.499 2°45.749 8.6 353 6.9 102240 95
2004-03-18 07:51:00 51°11.493 2°45.725 8.3 353 7 102240 95
2004-03-18 07:51:05 51°11.485 2°45.696 8.2 352 7 102240 95
2004-03-18 07:51:11 51°11.476 2°45.659 8.3 352 7 102230 95
2004-03-18 07:51:15 51°11.471 2°45.636 8.6 351 7 102230 95
2004-03-18 07:51:20 51°11.463 2°45.606 8.6 350 7 102230 95
2004-03-18 07:51:25 51°11.456 2°45.576 8.3 349 7 102230 95
2004-03-18 07:51:29 51°11.45 2°45.552 8.6 350 7 102230 95
2004-03-18 07:51:35 51°11.442 2°45.516 8.3 350 7 102230 95
2004-03-18 07:51:40 51°11.434 2°45.486 8.4 350 7 102230 95
2004-03-18 07:51:45 51°11.427 2°45.456 8.4 349 7 102230 95
2004-03-18 07:51:51 51°11.418 2°45.421 8.3 349 7 102230 95
2004-03-18 07:51:55 51°11.412 2°45.397 8.1 349 7 102230 95
2004-03-18 07:52:00 51°11.404 2°45.368 7.8 348 7 102230 95
2004-03-18 07:52:05 51°11.397 2°45.339 7.9 347 7 102230 95
2004-03-18 07:52:11 51°11.388 2°45.303 7.9 347 7 102220 95
2004-03-18 07:52:15 51°11.382 2°45.279 7.8 347 7 102220 95
2004-03-18 07:52:21 51°11.373 2°45.244 7.8 346 7 102220 95
2004-03-18 07:52:25 51°11.367 2°45.22 7.8 347 7 102220 95
2004-03-18 07:52:31 51°11.359 2°45.184 7.8 346 7 102220 95
2004-03-18 07:52:36 51°11.351 2°45.154 7.7 346 7 102220 95
2004-03-18 07:52:40 51°11.346 2°45.131 8 345 7 102220 95
2004-03-18 07:52:45 51°11.338 2°45.101 8.3 345 7 102220 95
2004-03-18 07:52:51 51°11.329 2°45.066 8.3 344 7 102220 95
2004-03-18 07:52:55 51°11.322 2°45.042 7.9 343 7 102220 95
2004-03-18 07:53:00 51°11.315 2°45.013 7.9 343 7 102220 95
2004-03-18 07:53:05 51°11.307 2°44.983 7.9 342 7 102220 95
2004-03-18 07:53:09 51°11.301 2°44.959 7.8 342 7 102210 95
2004-03-18 07:53:16 51°11.291 2°44.918 7.9 341 7 102210 95
2004-03-18 07:53:20 51°11.285 2°44.894 8.3 342 7 102240 95
2004-03-18 07:53:25 51°11.278 2°44.865 7.6 342 7 102240 95
2004-03-18 07:53:29 51°11.272 2°44.841 8.2 341 7 102230 95
2004-03-18 07:53:35 51°11.263 2°44.805 8.1 340 7 102230 95
2004-03-18 07:53:40 51°11.255 2°44.776 7.8 340 7 102210 95
2004-03-18 07:53:45 51°11.247 2°44.747 8 340 7 102210 95
2004-03-18 07:53:49 51°11.241 2°44.723 7.8 340 7 102210 95
2004-03-18 07:53:55 51°11.232 2°44.688 8 339 7 102210 95
2004-03-18 07:54:01 51°11.223 2°44.652 7.7 339 7 102210 95
2004-03-18 07:54:05 51°11.217 2°44.628 7.8 338 7 102210 95
2004-03-18 07:54:09 51°11.211 2°44.604 8.1 338 7 102210 95
2004-03-18 07:54:15 51°11.203 2°44.569 8.1 338 7 102210 95
2004-03-18 07:54:20 51°11.195 2°44.539 7.7 338 7 102200 95
2004-03-18 07:54:25 51°11.188 2°44.51 7.5 337 7 102200 95
2004-03-18 07:54:31 51°11.179 2°44.474 7.5 337 7 102200 95
2004-03-18 07:54:35 51°11.173 2°44.45 7.6 338 7 102200 95
2004-03-18 07:54:40 51°11.166 2°44.42 7.9 337 7 102200 95
2004-03-18 07:54:45 51°11.158 2°44.391 7.7 336 7 102200 95
2004-03-18 07:54:49 51°11.152 2°44.367 7.9 336 7 102200 95
2004-03-18 07:54:55 51°11.144 2°44.332 7.3 335 7 102200 95
2004-03-18 07:55:00 51°11.136 2°44.302 7.7 336 7 102200 95
2004-03-18 07:55:05 51°11.129 2°44.272 7.9 334 7 102200 95
2004-03-18 07:55:09 51°11.123 2°44.249 7.9 334 7 102200 95
2004-03-18 07:55:15 51°11.115 2°44.213 8 334 7 102200 95
2004-03-18 07:55:20 51°11.107 2°44.183 7.9 334 7 102200 95
2004-03-18 07:55:25 51°11.1 2°44.153 7.8 332 7 102200 95
2004-03-18 07:55:29 51°11.094 2°44.13 7.7 332 7 102200 95
2004-03-18 07:55:35 51°11.086 2°44.094 7.9 331 7 102200 95
2004-03-18 07:55:40 51°11.079 2°44.064 7.8 331 7 102190 95
2004-03-18 07:55:45 51°11.072 2°44.034 8.4 331 7 102190 95
2004-03-18 07:55:50 51°11.064 2°44.004 8.4 331 7 102190 95
2004-03-18 07:55:55 51°11.057 2°43.975 8.3 330 7 102190 95
2004-03-18 07:56:00 51°11.049 2°43.946 8.5 329 7 102190 95
2004-03-18 07:56:05 51°11.041 2°43.917 8.4 328 7 102190 95
2004-03-18 07:56:11 51°11.031 2°43.883 8.1 328 7 102190 95
2004-03-18 07:56:15 51°11.025 2°43.859 8.1 328 7 102190 95
2004-03-18 07:56:20 51°11.018 2°43.83 8.4 328 7 102180 95
2004-03-18 07:56:25 51°11.011 2°43.8 8.3 326 7 102180 95
2004-03-18 07:56:29 51°11.005 2°43.776 7.9 326 7 102190 95
2004-03-18 07:56:35 51°10.998 2°43.74 7.8 326 7 102190 95
2004-03-18 07:56:40 51°10.991 2°43.71 7.9 325 7 102190 95
2004-03-18 07:56:45 51°10.984 2°43.68 8.1 326 7 102190 95
2004-03-18 07:56:51 51°10.977 2°43.644 8.2 325 7 102180 95
2004-03-18 07:56:55 51°10.971 2°43.62 7.8 325 7 102180 95
2004-03-18 07:57:00 51°10.964 2°43.59 8 324 7 102180 95
2004-03-18 07:57:05 51°10.958 2°43.56 8.1 325 7 102180 95
2004-03-18 07:57:09 51°10.953 2°43.536 8.2 324 7 102180 95
2004-03-18 07:57:15 51°10.945 2°43.5 7.7 325 7 102180 95
2004-03-18 07:57:20 51°10.939 2°43.47 7.8 324 7 102180 95
2004-03-18 07:57:25 51°10.932 2°43.44 7.7 323 7 102180 95
2004-03-18 07:57:30 51°10.926 2°43.41 8.2 324 7 102180 95
2004-03-18 07:57:35 51°10.919 2°43.38 8 324 7 102180 95
2004-03-18 07:57:40 51°10.912 2°43.35 8.3 325 7 102180 95
2004-03-18 07:57:45 51°10.906 2°43.32 7.8 324 7 102180 95
2004-03-18 07:57:49 51°10.901 2°43.296 7.6 325 7 102180 95
2004-03-18 07:57:55 51°10.893 2°43.26 7.5 325 7 102180 95
2004-03-18 07:58:00 51°10.887 2°43.23 8 324 7 102180 95
2004-03-18 07:58:05 51°10.88 2°43.2 7.8 325 7 102180 95
2004-03-18 07:58:09 51°10.875 2°43.176 7.6 326 7 102180 95
2004-03-18 07:58:15 51°10.868 2°43.14 7.7 326 7 102180 95
2004-03-18 07:58:20 51°10.862 2°43.11 7.6 327 7 102180 95
2004-03-18 07:58:25 51°10.855 2°43.08 8.1 326 7 102180 95
2004-03-18 07:58:30 51°10.848 2°43.05 8 326 7 102180 95
2004-03-18 07:58:35 51°10.842 2°43.02 7.5 326 7 102180 95
2004-03-18 07:58:40 51°10.836 2°42.99 7.8 327 7 102190 95
2004-03-18 07:58:45 51°10.829 2°42.96 7.4 327 7 102190 95
2004-03-18 07:58:49 51°10.824 2°42.936 8.1 326 7 102180 95
2004-03-18 07:58:55 51°10.816 2°42.9 8.1 325 7 102180 95
2004-03-18 07:59:00 51°10.809 2°42.87 8 326 7 102180 95
2004-03-18 07:59:05 51°10.803 2°42.84 8 327 7 102180 95
2004-03-18 07:59:09 51°10.798 2°42.817 7.7 329 7.1 102180 95
2004-03-18 07:59:15 51°10.79 2°42.781 7.8 328 7.1 102180 95
2004-03-18 07:59:21 51°10.782 2°42.745 7.8 328 7.1 102190 95
2004-03-18 07:59:25 51°10.777 2°42.72 7.6 327 7.1 102190 95
2004-03-18 07:59:29 51°10.772 2°42.696 7.8 329 7.1 102180 95
2004-03-18 07:59:35 51°10.764 2°42.661 7.9 328 7.1 102180 95
2004-03-18 07:59:40 51°10.758 2°42.631 7.8 328 7.1 102190 95
2004-03-18 07:59:45 51°10.751 2°42.601 7.7 329 7.1 102190 95
2004-03-18 07:59:51 51°10.743 2°42.565 7.7 329 7 102190 95
2004-03-18 07:59:55 51°10.738 2°42.542 7.9 330 7 102190 95
2004-03-18 07:59:59 51°10.732 2°42.518 7.8 333 7.1 102190 95
2004-03-18 08:00:05 51°10.724 2°42.482 7.6 332 7.1 102190 95
2004-03-18 08:00:11 51°10.717 2°42.446 7.5 331 7.1 102190 95
2004-03-18 08:00:15 51°10.712 2°42.422 7.6 334 7.1 102190 95
2004-03-18 08:00:20 51°10.706 2°42.392 7.4 332 7 102190 95
2004-03-18 08:00:25 51°10.699 2°42.362 8 330 7 102190 95
2004-03-18 08:00:29 51°10.694 2°42.338 8 331 7.1 102190 95
2004-03-18 08:00:35 51°10.687 2°42.303 7.5 332 7.1 102190 95
2004-03-18 08:00:40 51°10.68 2°42.273 7.5 330 7.1 102190 95
2004-03-18 08:00:45 51°10.674 2°42.243 7.8 332 7.1 102190 95
2004-03-18 08:00:49 51°10.668 2°42.219 7.7 331 7.1 102190 95
2004-03-18 08:00:55 51°10.661 2°42.184 8 334 7.1 102190 95
2004-03-18 08:01:00 51°10.654 2°42.154 7.7 334 7.1 102190 95
2004-03-18 08:01:05 51°10.648 2°42.124 7.7 334 7.1 102190 95
2004-03-18 08:01:09 51°10.643 2°42.101 7.7 336 7.1 102190 95
2004-03-18 08:01:15 51°10.635 2°42.065 7.7 336 7.1 102190 95
2004-03-18 08:01:21 51°10.628 2°42.029 7.8 332 7.1 102190 95
2004-03-18 08:01:25 51°10.623 2°42.006 8.3 337 7.1 102190 95
2004-03-18 08:01:29 51°10.618 2°41.982 7.7 335 7.1 102190 95
2004-03-18 08:01:36 51°10.608 2°41.94 8 338 7.1 102190 95
2004-03-18 08:01:40 51°10.603 2°41.917 7.8 337 7.1 102190 95
2004-03-18 08:01:45 51°10.597 2°41.887 7.8 336 7.1 102190 95
2004-03-18 08:01:49 51°10.592 2°41.863 8.1 338 7.1 102190 95
2004-03-18 08:01:56 51°10.583 2°41.822 7.9 340 7.1 102190 95
2004-03-18 08:02:00 51°10.578 2°41.798 8 340 7.1 102190 95
2004-03-18 08:02:05 51°10.572 2°41.768 7.8 342 7.1 102190 95
2004-03-18 08:02:09 51°10.567 2°41.744 7.5 341 7.1 102190 95
2004-03-18 08:02:15 51°10.559 2°41.709 7.6 341 7.1 102190 95
2004-03-18 08:02:20 51°10.553 2°41.679 7.3 340 7.1 102210 95
2004-03-18 08:02:25 51°10.547 2°41.649 7.5 340 7.1 102210 95
2004-03-18 08:02:29 51°10.542 2°41.625 7.6 339 7.2 102210 95
2004-03-18 08:02:35 51°10.535 2°41.59 7.7 340 7.2 102210 95
2004-03-18 08:02:40 51°10.528 2°41.56 7.8 340 7.1 102210 95
2004-03-18 08:02:45 51°10.521 2°41.53 7.9 340 7.1 102210 95
2004-03-18 08:02:50 51°10.515 2°41.5 8 342 7.2 102190 95
2004-03-18 08:02:55 51°10.508 2°41.471 7.8 340 7.2 102190 95
2004-03-18 08:02:59 51°10.503 2°41.447 7.7 342 7.2 102190 95
2004-03-18 08:03:05 51°10.496 2°41.412 8 341 7.2 102190 95
2004-03-18 08:03:09 51°10.491 2°41.388 8.2 339 7.2 102190 95
2004-03-18 08:03:15 51°10.483 2°41.352 8.2 340 7.2 102190 95
2004-03-18 08:03:20 51°10.477 2°41.322 8 344 7.2 102190 95
2004-03-18 08:03:25 51°10.471 2°41.293 8.3 343 7.2 102190 95
2004-03-18 08:03:31 51°10.463 2°41.257 8.1 343 7.2 102190 95
2004-03-18 08:03:35 51°10.458 2°41.234 7.9 344 7.2 102190 95
2004-03-18 08:03:40 51°10.451 2°41.204 8.1 343 7.2 102190 95
2004-03-18 08:03:45 51°10.445 2°41.175 7.9 341 7.2 102190 95
2004-03-18 08:03:51 51°10.437 2°41.139 7.7 342 7.2 102190 95
2004-03-18 08:03:55 51°10.432 2°41.116 7.8 343 7.2 102190 95
2004-03-18 08:04:00 51°10.426 2°41.086 7.8 344 7.2 102190 95
2004-03-18 08:04:05 51°10.419 2°41.057 7.7 344 7.2 102190 95
2004-03-18 08:04:11 51°10.411 2°41.022 7.9 343 7.2 102200 95
2004-03-18 08:04:15 51°10.406 2°40.998 8.1 344 7.2 102200 95
2004-03-18 08:04:20 51°10.4 2°40.969 7.7 344 7.2 102200 95
2004-03-18 08:04:25 51°10.394 2°40.939 7.4 343 7.2 102200 95
2004-03-18 08:04:31 51°10.386 2°40.904 8 342 7.2 102190 95
2004-03-18 08:04:35 51°10.382 2°40.88 7.7 343 7.2 102190 95
2004-03-18 08:04:39 51°10.377 2°40.857 8.1 341 7.2 102200 95
2004-03-18 08:04:45 51°10.369 2°40.821 7.6 344 7.2 102200 95
2004-03-18 08:04:49 51°10.364 2°40.798 7.7 343 7.2 102200 95
2004-03-18 08:04:55 51°10.357 2°40.763 7.5 345 7.2 102200 95
2004-03-18 08:05:00 51°10.35 2°40.733 7.6 345 7.2 102200 95
2004-03-18 08:05:05 51°10.344 2°40.704 7.5 345 7.2 102200 95
2004-03-18 08:05:09 51°10.339 2°40.68 7.7 345 7.2 102200 95
2004-03-18 08:05:15 51°10.332 2°40.646 7.4 345 7.2 102200 95
2004-03-18 08:05:20 51°10.325 2°40.617 7.8 348 7.2 102200 95
2004-03-18 08:05:25 51°10.319 2°40.587 7.5 345 7.2 102200 95
2004-03-18 08:05:29 51°10.314 2°40.564 7.7 347 7.2 102190 95
2004-03-18 08:05:35 51°10.306 2°40.529 7.7 350 7.2 102190 95
2004-03-18 08:05:41 51°10.299 2°40.494 7.4 349 7.2 102190 95
2004-03-18 08:05:45 51°10.294 2°40.471 7.7 347 7.2 102190 95
2004-03-18 08:05:51 51°10.287 2°40.436 7.2 347 7.2 102200 95
2004-03-18 08:05:55 51°10.281 2°40.413 7.9 344 7.2 102200 95
2004-03-18 08:06:00 51°10.275 2°40.384 7.4 346 7.2 102200 95
2004-03-18 08:06:05 51°10.269 2°40.355 7.5 349 7.2 102200 95
2004-03-18 08:06:11 51°10.262 2°40.321 7.3 348 7.2 102200 95
2004-03-18 08:06:15 51°10.257 2°40.298 7.3 349 7.2 102200 95
2004-03-18 08:06:20 51°10.251 2°40.269 7.8 347 7.2 102200 95
2004-03-18 08:06:25 51°10.245 2°40.24 7.3 349 7.2 102200 95
2004-03-18 08:06:29 51°10.24 2°40.216 7.6 349 7.2 102200 95
2004-03-18 08:06:36 51°10.231 2°40.176 7.5 351 7.2 102200 95
2004-03-18 08:06:40 51°10.226 2°40.152 7.7 349 7.2 102200 95
2004-03-18 08:06:45 51°10.219 2°40.123 7.5 350 7.2 102200 95
2004-03-18 08:06:51 51°10.212 2°40.089 7.3 348 7.2 102200 95
2004-03-18 08:06:55 51°10.207 2°40.065 7.4 349 7.2 102200 95
2004-03-18 08:07:01 51°10.2 2°40.031 7.6 349 7.2 102200 95
2004-03-18 08:07:05 51°10.195 2°40.008 7.5 348 7.2 102200 95
2004-03-18 08:07:09 51°10.19 2°39.984 7.5 348 7.2 102200 95
2004-03-18 08:07:15 51°10.183 2°39.949 7.2 347 7.2 102200 95
2004-03-18 08:07:21 51°10.175 2°39.914 7.5 347 7.2 102190 95
2004-03-18 08:07:25 51°10.17 2°39.89 7.4 349 7.2 102190 95
2004-03-18 08:07:31 51°10.163 2°39.855 7.4 346 7.2 102200 95
2004-03-18 08:07:35 51°10.158 2°39.832 7.2 347 7.2 102200 95
2004-03-18 08:07:41 51°10.151 2°39.797 7.5 347 7.2 102200 95
2004-03-18 08:07:45 51°10.146 2°39.774 7.5 345 7.2 102200 95
2004-03-18 08:07:50 51°10.14 2°39.745 7.3 344 7.2 102190 95
2004-03-18 08:07:55 51°10.134 2°39.716 7.3 346 7.2 102190 95
2004-03-18 08:07:59 51°10.129 2°39.692 7.4 345 7.2 102190 95
2004-03-18 08:08:05 51°10.122 2°39.657 7.3 345 7.2 102190 95
2004-03-18 08:08:10 51°10.116 2°39.628 7.3 345 7.2 102190 95
2004-03-18 08:08:15 51°10.11 2°39.599 7.3 348 7.2 102190 95
2004-03-18 08:08:19 51°10.106 2°39.576 7.3 346 7.3 102190 95
2004-03-18 08:08:25 51°10.098 2°39.541 7.4 347 7.3 102190 95
2004-03-18 08:08:29 51°10.093 2°39.518 7.3 349 7.2 102190 95
2004-03-18 08:08:35 51°10.086 2°39.483 7.4 346 7.2 102190 95
2004-03-18 08:08:41 51°10.078 2°39.448 7.2 345 7.3 102190 95
2004-03-18 08:08:45 51°10.074 2°39.425 7.1 345 7.3 102190 95
2004-03-18 08:08:50 51°10.067 2°39.396 7.6 344 7.3 102190 95
2004-03-18 08:08:55 51°10.061 2°39.366 7.1 344 7.3 102190 95
2004-03-18 08:09:00 51°10.055 2°39.337 7.3 347 7.3 102190 95
2004-03-18 08:09:05 51°10.049 2°39.308 7.6 347 7.3 102190 95
2004-03-18 08:09:11 51°10.042 2°39.273 7.2 347 7.3 102190 95
2004-03-18 08:09:15 51°10.037 2°39.249 7.4 347 7.3 102190 95
2004-03-18 08:09:19 51°10.032 2°39.226 7.3 343 7.3 102190 95
2004-03-18 08:09:25 51°10.025 2°39.191 7.2 344 7.3 102190 95
2004-03-18 08:09:31 51°10.018 2°39.156 7.4 346 7.3 102190 95
2004-03-18 08:09:36 51°10.011 2°39.127 7.3 343 7.3 102190 95
2004-03-18 08:09:40 51°10.007 2°39.104 7.2 344 7.3 102190 95
2004-03-18 08:09:45 51°10 2°39.074 6.8 344 7.3 102190 95
2004-03-18 08:09:50 51°9.994 2°39.045 7.2 345 7.3 102190 95
2004-03-18 08:09:55 51°9.988 2°39.016 7.3 347 7.3 102190 95
2004-03-18 08:10:00 51°9.982 2°38.987 7.3 343 7.3 102180 95
2004-03-18 08:10:05 51°9.976 2°38.958 7.1 345 7.3 102180 95
2004-03-18 08:10:10 51°9.97 2°38.928 7.5 344 7.4 102190 95
2004-03-18 08:10:15 51°9.963 2°38.899 7.3 343 7.4 102190 95
2004-03-18 08:10:19 51°9.958 2°38.875 7.1 342 7.3 102190 95
2004-03-18 08:10:25 51°9.951 2°38.84 7.5 342 7.3 102190 95
2004-03-18 08:10:29 51°9.946 2°38.817 7.1 342 7.4 102180 95
2004-03-18 08:10:35 51°9.939 2°38.781 7 341 7.4 102180 95
2004-03-18 08:10:40 51°9.933 2°38.752 7.3 341 7.4 102180 95
2004-03-18 08:10:45 51°9.926 2°38.723 7.3 341 7.4 102180 95
2004-03-18 08:10:51 51°9.919 2°38.688 7.3 341 7.4 102180 95
2004-03-18 08:10:55 51°9.914 2°38.664 7.1 343 7.4 102180 95
2004-03-18 08:11:00 51°9.908 2°38.635 7.1 341 7.4 102180 95
2004-03-18 08:11:05 51°9.902 2°38.605 7.4 343 7.4 102180 95
2004-03-18 08:11:09 51°9.897 2°38.582 7.1 342 7.4 102180 95
2004-03-18 08:11:15 51°9.889 2°38.547 7.5 342 7.4 102180 95
2004-03-18 08:11:21 51°9.882 2°38.512 7.3 342 7.4 102180 95
2004-03-18 08:11:25 51°9.877 2°38.488 7.8 341 7.4 102180 95
2004-03-18 08:11:29 51°9.872 2°38.465 7.3 341 7.4 102180 95
2004-03-18 08:11:35 51°9.865 2°38.43 7.5 340 7.4 102180 95
2004-03-18 08:11:40 51°9.859 2°38.4 7.4 341 7.4 102180 95
2004-03-18 08:11:45 51°9.853 2°38.371 7.4 340 7.4 102180 95
2004-03-18 08:11:50 51°9.847 2°38.342 7.7 340 7.4 102180 95
2004-03-18 08:11:55 51°9.841 2°38.312 7.8 340 7.4 102180 95
2004-03-18 08:11:59 51°9.836 2°38.289 8 340 7.4 102180 95
2004-03-18 08:12:05 51°9.828 2°38.254 7.9 340 7.4 102180 95
2004-03-18 08:12:09 51°9.823 2°38.23 7.6 340 7.4 102180 95
2004-03-18 08:12:15 51°9.817 2°38.195 8 340 7.4 102180 95
2004-03-18 08:12:20 51°9.811 2°38.166 7.6 340 7.4 102180 95
2004-03-18 08:12:25 51°9.805 2°38.136 7.6 340 7.4 102180 95
2004-03-18 08:12:31 51°9.798 2°38.102 7.6 340 7.4 102180 95
2004-03-18 08:12:35 51°9.793 2°38.078 8 340 7.4 102180 95
2004-03-18 08:12:41 51°9.786 2°38.043 7.9 339 7.4 102180 95
2004-03-18 08:12:45 51°9.781 2°38.019 7.8 338 7.4 102180 95
2004-03-18 08:12:51 51°9.773 2°37.984 8.2 339 7.5 102180 95
2004-03-18 08:12:55 51°9.768 2°37.961 8.1 338 7.5 102180 95
2004-03-18 08:13:00 51°9.762 2°37.932 8.1 338 7.5 102180 95
2004-03-18 08:13:05 51°9.756 2°37.903 7.8 338 7.5 102180 95
2004-03-18 08:13:09 51°9.751 2°37.88 8.3 339 7.5 102180 95
2004-03-18 08:13:16 51°9.743 2°37.839 8.2 337 7.5 102180 95
2004-03-18 08:13:19 51°9.739 2°37.821 8.3 337 7.5 102180 95
2004-03-18 08:13:25 51°9.732 2°37.786 8.1 338 7.5 102180 95
2004-03-18 08:13:31 51°9.725 2°37.751 8.2 338 7.5 102180 95
2004-03-18 08:13:35 51°9.72 2°37.728 7.9 338 7.5 102180 95
2004-03-18 08:13:40 51°9.714 2°37.699 7.6 337 7.5 102180 95
2004-03-18 08:13:45 51°9.708 2°37.67 7.6 338 7.5 102180 95
2004-03-18 08:13:51 51°9.7 2°37.635 7.9 337 7.5 102180 95
2004-03-18 08:13:55 51°9.695 2°37.612 7.9 337 7.5 102180 95
2004-03-18 08:14:00 51°9.689 2°37.583 7.7 337 7.5 102180 95
2004-03-18 08:14:05 51°9.683 2°37.554 7.9 338 7.5 102180 95
2004-03-18 08:14:11 51°9.676 2°37.518 7.4 337 7.5 102180 95
2004-03-18 08:14:15 51°9.671 2°37.495 7.9 337 7.5 102180 95
2004-03-18 08:14:20 51°9.665 2°37.466 7.8 337 7.5 102180 95
2004-03-18 08:14:25 51°9.66 2°37.436 7.4 337 7.5 102180 95
2004-03-18 08:14:30 51°9.654 2°37.407 7.5 337 7.5 102170 95
2004-03-18 08:14:35 51°9.648 2°37.378 7.7 337 7.5 102170 95
2004-03-18 08:14:40 51°9.641 2°37.349 8 338 7.5 102180 95
2004-03-18 08:14:45 51°9.635 2°37.32 7.8 336 7.5 102180 95
2004-03-18 08:14:51 51°9.627 2°37.286 8 336 7.5 102170 95
2004-03-18 08:14:55 51°9.621 2°37.263 8.3 335 7.5 102170 95
2004-03-18 08:15:00 51°9.614 2°37.235 8 335 7.5 102170 95
2004-03-18 08:15:05 51°9.607 2°37.206 7.9 335 7.5 102170 95
2004-03-18 08:15:09 51°9.601 2°37.184 8.2 335 7.5 102170 95
2004-03-18 08:15:15 51°9.592 2°37.149 7.8 335 7.5 102170 95
2004-03-18 08:15:20 51°9.585 2°37.121 7.8 335 7.5 102170 95
2004-03-18 08:15:25 51°9.578 2°37.092 8.3 335 7.5 102170 95
2004-03-18 08:15:29 51°9.573 2°37.069 7.6 334 7.5 102170 95
2004-03-18 08:15:35 51°9.564 2°37.035 8.2 337 7.5 102170 95
2004-03-18 08:15:40 51°9.557 2°37.007 8 335 7.5 102170 95
2004-03-18 08:15:45 51°9.549 2°36.978 8.3 336 7.5 102170 95
2004-03-18 08:15:51 51°9.54 2°36.944 7.9 337 7.5 102170 95
2004-03-18 08:15:55 51°9.534 2°36.922 8.2 336 7.5 102170 95
2004-03-18 08:16:00 51°9.527 2°36.893 8.1 335 7.5 102160 95
2004-03-18 08:16:05 51°9.52 2°36.865 8 335 7.5 102160 95
2004-03-18 08:16:10 51°9.513 2°36.836 8.2 335 7.5 102170 95
2004-03-18 08:16:15 51°9.506 2°36.808 7.6 335 7.5 102170 95
2004-03-18 08:16:20 51°9.499 2°36.779 8.1 334 7.5 102170 95
2004-03-18 08:16:25 51°9.492 2°36.751 8.1 336 7.5 102170 95
2004-03-18 08:16:31 51°9.484 2°36.717 7.9 337 7.5 102170 95
2004-03-18 08:16:35 51°9.478 2°36.694 8 336 7.5 102170 95
2004-03-18 08:16:39 51°9.472 2°36.671 7.9 338 7.5 102170 95
2004-03-18 08:16:45 51°9.464 2°36.637 8.2 336 7.5 102170 95
2004-03-18 08:16:49 51°9.458 2°36.614 8.3 337 7.5 102170 95
2004-03-18 08:16:56 51°9.448 2°36.575 7.9 336 7.5 102170 95
2004-03-18 08:16:59 51°9.443 2°36.557 8.1 337 7.5 102170 95
2004-03-18 08:17:05 51°9.435 2°36.523 8.2 337 7.5 102170 95
2004-03-18 08:17:10 51°9.428 2°36.495 8.1 337 7.5 102170 95
2004-03-18 08:17:15 51°9.421 2°36.466 8.5 339 7.5 102170 95
2004-03-18 08:17:19 51°9.416 2°36.444 7.9 339 7.5 102170 95
2004-03-18 08:17:25 51°9.407 2°36.41 8.2 339 7.5 102170 95
2004-03-18 08:17:31 51°9.399 2°36.375 8.2 339 7.5 102170 95
2004-03-18 08:17:35 51°9.393 2°36.353 8.4 340 7.5 102170 95
2004-03-18 08:17:40 51°9.386 2°36.324 8 340 7.5 102170 95
2004-03-18 08:17:45 51°9.379 2°36.296 8 340 7.5 102170 95
2004-03-18 08:17:50 51°9.372 2°36.267 8.3 340 7.5 102170 95
2004-03-18 08:17:55 51°9.365 2°36.239 8.2 340 7.5 102170 95
2004-03-18 08:18:00 51°9.358 2°36.21 8.4 339 7.5 102170 95
2004-03-18 08:18:05 51°9.351 2°36.182 8.2 341 7.5 102170 95
2004-03-18 08:18:09 51°9.346 2°36.159 8.2 341 7.5 102170 95
2004-03-18 08:18:15 51°9.338 2°36.124 8.6 340 7.5 102170 95
2004-03-18 08:18:20 51°9.332 2°36.096 8.1 341 7.5 102170 95
2004-03-18 08:18:25 51°9.325 2°36.068 8.4 341 7.5 102170 95
2004-03-18 08:18:30 51°9.318 2°36.039 8.4 340 7.5 102170 95
2004-03-18 08:18:35 51°9.311 2°36.01 8.3 340 7.5 102170 95
2004-03-18 08:18:41 51°9.303 2°35.976 7.8 340 7.5 102170 95
2004-03-18 08:18:45 51°9.298 2°35.953 8.2 341 7.5 102170 95
2004-03-18 08:18:51 51°9.29 2°35.919 8.4 341 7.5 102180 95
2004-03-18 08:18:55 51°9.285 2°35.896 8.1 341 7.5 102180 95
2004-03-18 08:19:01 51°9.277 2°35.862 8.3 340 7.5 102170 95
2004-03-18 08:19:05 51°9.272 2°35.84 8.2 341 7.5 102170 95
2004-03-18 08:19:10 51°9.265 2°35.811 8 342 7.5 102170 95
2004-03-18 08:19:15 51°9.259 2°35.783 8.1 341 7.5 102170 95
2004-03-18 08:19:21 51°9.25 2°35.749 8.3 341 7.5 102170 95
2004-03-18 08:19:25 51°9.245 2°35.726 8.1 342 7.5 102170 95
2004-03-18 08:19:29 51°9.24 2°35.704 8.3 342 7.5 102170 95
2004-03-18 08:19:36 51°9.23 2°35.664 8.1 342 7.5 102170 95
2004-03-18 08:19:39 51°9.226 2°35.647 8.4 342 7.5 102170 95
2004-03-18 08:19:45 51°9.218 2°35.613 8.2 342 7.5 102170 95
2004-03-18 08:19:50 51°9.211 2°35.585 8 342 7.5 102170 95
2004-03-18 08:19:55 51°9.204 2°35.556 7.8 345 7.5 102170 95
2004-03-18 08:20:00 51°9.198 2°35.528 7.9 344 7.5 102170 95
2004-03-18 08:20:05 51°9.191 2°35.5 8.2 342 7.5 102170 95
2004-03-18 08:20:10 51°9.184 2°35.472 8.5 342 7.5 102170 95
2004-03-18 08:20:15 51°9.178 2°35.443 8 345 7.5 102170 95
2004-03-18 08:20:20 51°9.171 2°35.415 8.1 344 7.5 102170 95
2004-03-18 08:20:25 51°9.165 2°35.387 8.3 345 7.5 102170 95
2004-03-18 08:20:31 51°9.156 2°35.353 8.1 343 7.5 102170 95
2004-03-18 08:20:35 51°9.151 2°35.33 8.3 344 7.5 102170 95
2004-03-18 08:20:41 51°9.143 2°35.296 7.7 345 7.5 102170 95
2004-03-18 08:20:45 51°9.137 2°35.274 7.8 347 7.5 102170 95
2004-03-18 08:20:51 51°9.129 2°35.24 7.9 347 7.5 102170 95
2004-03-18 08:20:55 51°9.123 2°35.217 7.8 345 7.5 102170 95
2004-03-18 08:21:00 51°9.116 2°35.189 8 347 7.5 102170 95
2004-03-18 08:21:05 51°9.11 2°35.161 8.2 346 7.5 102170 95
2004-03-18 08:21:09 51°9.104 2°35.138 7.9 346 7.5 102170 95
2004-03-18 08:21:15 51°9.096 2°35.104 8.2 348 7.5 102170 95
2004-03-18 08:21:21 51°9.088 2°35.07 8 347 7.5 102170 95
2004-03-18 08:21:25 51°9.082 2°35.047 7.6 346 7.5 102170 95
2004-03-18 08:21:29 51°9.077 2°35.025 8.3 346 7.5 102170 95
2004-03-18 08:21:35 51°9.069 2°34.99 8 347 7.5 102170 95
2004-03-18 08:21:41 51°9.061 2°34.956 8.2 346 7.5 102170 95
2004-03-18 08:21:45 51°9.056 2°34.934 8.2 348 7.5 102170 95
2004-03-18 08:21:51 51°9.048 2°34.899 7.8 349 7.5 102170 95
2004-03-18 08:21:55 51°9.043 2°34.877 8.1 351 7.5 102170 95
2004-03-18 08:22:00 51°9.036 2°34.848 8.1 349 7.5 102170 95
2004-03-18 08:22:05 51°9.03 2°34.82 8.2 349 7.5 102170 95
2004-03-18 08:22:09 51°9.024 2°34.797 7.8 347 7.5 102170 95
2004-03-18 08:22:15 51°9.016 2°34.763 8.1 345 7.5 102170 95
2004-03-18 08:22:20 51°9.01 2°34.735 8 348 7.5 102170 95
2004-03-18 08:22:25 51°9.003 2°34.707 8.4 345 7.5 102170 95
2004-03-18 08:22:31 51°8.995 2°34.673 8.1 346 7.5 102170 95
2004-03-18 08:22:35 51°8.989 2°34.65 7.2 345 7.5 102170 95
2004-03-18 08:22:39 51°8.985 2°34.629 7.2 345 7.5 102170 95
2004-03-18 08:22:45 51°8.978 2°34.601 6.4 342 7.5 102170 95
2004-03-18 08:22:49 51°8.973 2°34.582 6.4 342 7.6 102160 95
2004-03-18 08:22:56 51°8.966 2°34.553 5.8 340 7.6 102160 95
2004-03-18 08:22:59 51°8.963 2°34.541 6.4 339 7.5 102170 95
2004-03-18 08:23:05 51°8.957 2°34.519 5.4 334 7.5 102170 95
2004-03-18 08:23:11 51°8.951 2°34.497 5.6 336 7.5 102190 95
2004-03-18 08:23:15 51°8.947 2°34.484 5.4 330 7.5 102190 95
2004-03-18 08:23:20 51°8.943 2°34.467 5.3 329 7.5 102190 95
2004-03-18 08:23:25 51°8.94 2°34.451 5.3 324 7.5 102190 95
2004-03-18 08:23:29 51°8.937 2°34.438 5.3 324 7.5 102190 95
2004-03-18 08:23:36 51°8.934 2°34.417 4.8 321 7.5 102190 95
2004-03-18 08:23:41 51°8.932 2°34.401 4.8 321 7.5 102190 95
2004-03-18 08:23:45 51°8.931 2°34.39 4.2 317 7.5 102190 95
2004-03-18 08:23:49 51°8.931 2°34.378 4.1 315 7.5 102190 95
2004-03-18 08:23:55 51°8.93 2°34.361 2.2 314 7.5 102190 95
2004-03-18 08:24:00 51°8.931 2°34.347 3.7 315 7.6 102190 95
2004-03-18 08:24:05 51°8.931 2°34.335 3.2 314 7.6 102190 95
2004-03-18 08:24:09 51°8.931 2°34.324 3.3 313 7.5 102190 95
2004-03-18 08:24:15 51°8.932 2°34.31 2.8 310 7.5 102190 95
2004-03-18 08:24:20 51°8.933 2°34.298 2.7 310 7.5 102190 95
2004-03-18 08:24:25 51°8.935 2°34.288 2.3 303 7.5 102190 95
2004-03-18 08:24:30 51°8.936 2°34.278 2.6 302 7.5 102190 95
2004-03-18 08:24:35 51°8.938 2°34.269 2.6 292 7.5 102190 95
2004-03-18 08:24:40 51°8.939 2°34.26 2.3 294 7.5 102200 95
2004-03-18 08:24:45 51°8.939 2°34.253 2.4 284 7.5 102200 95
2004-03-18 08:24:51 51°8.94 2°34.246 2.5 285 7.5 102190 95
2004-03-18 08:24:55 51°8.94 2°34.243 2.6 279 7.5 102190 95
2004-03-18 08:25:00 51°8.94 2°34.239 2.8 276 7.5 102200 95
2004-03-18 08:25:05 51°8.941 2°34.237 2.8 267 7.5 102200 95
2004-03-18 08:25:10 51°8.941 2°34.237 2.7 264 7.5 102200 95
2004-03-18 08:25:15 51°8.941 2°34.237 2.2 260 7.5 102200 95
2004-03-18 08:25:20 51°8.942 2°34.237 2.5 261 7.5 102190 95
2004-03-18 08:25:25 51°8.942 2°34.237 2.7 266 7.5 102190 95
2004-03-18 08:25:31 51°8.942 2°34.237 2.8 267 7.6 102190 95
2004-03-18 08:25:35 51°8.943 2°34.237 2.4 266 7.6 102190 95
2004-03-18 08:25:40 51°8.943 2°34.237 2.5 266 7.6 102190 95
2004-03-18 08:25:45 51°8.943 2°34.237 2.7 270 7.6 102190 95
2004-03-18 08:25:51 51°8.943 2°34.237 2.3 274 7.5 102190 95
2004-03-18 08:25:56 51°8.944 2°34.237 2.7 272 7.5 102190 95
2004-03-18 08:26:00 51°8.944 2°34.237 2.8 272 7.5 102190 95
2004-03-18 08:26:05 51°8.944 2°34.237 2.7 273 7.5 102190 95
2004-03-18 08:26:09 51°8.944 2°34.237 2.7 273 7.5 102190 95
2004-03-18 08:26:16 51°8.945 2°34.237 2.5 275 7.5 102190 95
2004-03-18 08:26:20 51°8.945 2°34.237 2.4 275 7.5 102190 95
2004-03-18 08:26:25 51°8.945 2°34.237 2.6 275 7.5 102190 95
2004-03-18 08:26:29 51°8.945 2°34.236 2.4 275 7.5 102190 95
2004-03-18 08:26:35 51°8.946 2°34.236 2.6 272 7.5 102190 95
2004-03-18 08:26:40 51°8.946 2°34.237 2.4 273 7.5 102190 95
2004-03-18 08:26:45 51°8.946 2°34.237 2.5 278 7.5 102190 95
2004-03-18 08:26:51 51°8.946 2°34.236 2.8 277 7.5 102190 95
2004-03-18 08:26:55 51°8.946 2°34.236 2.7 275 7.5 102190 95
2004-03-18 08:26:59 51°8.946 2°34.236 2.8 273 7.5 102180 95
2004-03-18 08:27:05 51°8.947 2°34.236 2.8 279 7.5 102180 95
2004-03-18 08:27:09 51°8.947 2°34.236 2.7 280 7.6 102180 95
2004-03-18 08:27:15 51°8.947 2°34.236 2.7 282 7.6 102180 95
2004-03-18 08:27:20 51°8.947 2°34.237 2.8 282 7.6 102180 95
2004-03-18 08:27:25 51°8.947 2°34.236 2.7 283 7.6 102180 95
2004-03-18 08:27:29 51°8.947 2°34.236 2.8 284 7.6 102180 95
2004-03-18 08:27:36 51°8.947 2°34.236 2.6 285 7.6 102180 95
2004-03-18 08:27:39 51°8.947 2°34.236 2.7 284 7.6 102180 95
2004-03-18 08:27:45 51°8.948 2°34.236 2.7 284 7.6 102180 95
2004-03-18 08:27:51 51°8.948 2°34.236 2.7 284 7.6 102180 95
2004-03-18 08:27:55 51°8.948 2°34.236 2.9 285 7.6 102180 95
2004-03-18 08:27:59 51°8.948 2°34.236 2.8 285 7.6 102180 95
2004-03-18 08:28:05 51°8.948 2°34.236 2.6 287 7.6 102180 95
2004-03-18 08:28:09 51°8.948 2°34.236 2.8 287 7.6 102180 95
2004-03-18 08:28:15 51°8.949 2°34.236 2.8 287 7.6 102180 95
2004-03-18 08:28:20 51°8.949 2°34.236 2.7 287 7.6 102180 95
2004-03-18 08:28:25 51°8.949 2°34.236 2.6 289 7.6 102180 95
2004-03-18 08:28:31 51°8.949 2°34.236 3 289 7.6 102180 95
2004-03-18 08:28:35 51°8.949 2°34.236 2.8 291 7.6 102180 95
2004-03-18 08:28:39 51°8.949 2°34.236 2.8 291 7.6 102180 95
2004-03-18 08:28:45 51°8.949 2°34.236 3 291 7.6 102180 95
2004-03-18 08:28:51 51°8.949 2°34.236 3 290 7.6 102170 95
2004-03-18 08:28:55 51°8.949 2°34.236 3 294 7.6 102170 95
2004-03-18 08:29:00 51°8.95 2°34.236 3.2 291 7.6 102170 95
2004-03-18 08:29:05 51°8.95 2°34.236 3.1 292 7.6 102170 95
2004-03-18 08:29:09 51°8.95 2°34.236 2.8 293 7.6 102180 95
2004-03-18 08:29:16 51°8.95 2°34.236 2.7 296 7.6 102180 95
2004-03-18 08:29:19 51°8.95 2°34.236 2.6 296 7.6 102170 95
2004-03-18 08:29:25 51°8.95 2°34.236 3.2 296 7.6 102170 95
2004-03-18 08:29:29 51°8.95 2°34.236 3.1 296 7.6 102180 95
2004-03-18 08:29:35 51°8.95 2°34.236 2.9 296 7.6 102180 95
2004-03-18 08:29:40 51°8.95 2°34.237 2.8 297 7.6 102170 95
2004-03-18 08:29:45 51°8.951 2°34.237 3.5 297 7.6 102170 95
2004-03-18 08:29:51 51°8.951 2°34.237 3.2 298 7.6 102170 95
2004-03-18 08:29:55 51°8.951 2°34.237 2.8 298 7.6 102170 95
2004-03-18 08:30:00 51°8.951 2°34.237 3.1 297 7.6 102170 95
2004-03-18 08:30:05 51°8.951 2°34.237 3.1 300 7.6 102170 95
2004-03-18 08:30:09 51°8.951 2°34.237 3 298 7.6 102170 95
2004-03-18 08:30:15 51°8.951 2°34.237 3.1 300 7.6 102170 95
2004-03-18 08:30:20 51°8.951 2°34.237 3.1 299 7.6 102170 95
2004-03-18 08:30:25 51°8.951 2°34.237 3.2 300 7.6 102170 95
2004-03-18 08:30:31 51°8.951 2°34.237 3.3 304 7.6 102170 95
2004-03-18 08:30:35 51°8.951 2°34.237 3.2 300 7.6 102170 95
2004-03-18 08:30:41 51°8.951 2°34.237 3.2 305 7.7 102170 95
2004-03-18 08:30:45 51°8.951 2°34.237 3.2 304 7.7 102170 95
2004-03-18 08:30:50 51°8.951 2°34.237 3.4 305 7.7 102170 95
2004-03-18 08:30:55 51°8.951 2°34.237 3.3 309 7.7 102170 95
2004-03-18 08:31:00 51°8.951 2°34.237 3.3 304 7.7 102170 95
2004-03-18 08:31:05 51°8.951 2°34.237 3.4 300 7.7 102170 95
2004-03-18 08:31:11 51°8.951 2°34.237 3.3 302 7.7 102170 95
2004-03-18 08:31:15 51°8.951 2°34.237 3.6 307 7.7 102170 95
2004-03-18 08:31:20 51°8.951 2°34.237 3.3 304 7.7 102170 95
2004-03-18 08:31:25 51°8.951 2°34.237 3.2 305 7.7 102170 95
2004-03-18 08:31:29 51°8.951 2°34.237 3.3 307 7.7 102170 95
2004-03-18 08:31:35 51°8.951 2°34.237 3.4 306 7.7 102170 95
2004-03-18 08:31:41 51°8.951 2°34.237 3.5 307 7.7 102170 95
2004-03-18 08:31:45 51°8.951 2°34.237 3.5 307 7.7 102170 95
2004-03-18 08:31:51 51°8.951 2°34.237 3.5 306 7.7 102170 95
2004-03-18 08:31:55 51°8.951 2°34.237 3.7 307 7.7 102170 95
2004-03-18 08:32:00 51°8.951 2°34.237 3.7 306 7.7 102170 95
2004-03-18 08:32:05 51°8.951 2°34.237 3.9 310 7.7 102170 95
2004-03-18 08:32:09 51°8.951 2°34.237 3.8 306 7.7 102170 95
2004-03-18 08:32:16 51°8.951 2°34.237 3.9 307 7.7 102170 95
2004-03-18 08:32:21 51°8.951 2°34.238 3.7 308 7.7 102170 95
2004-03-18 08:32:25 51°8.951 2°34.238 3.7 310 7.7 102170 95
2004-03-18 08:32:30 51°8.951 2°34.238 3.7 310 7.7 102170 95
2004-03-18 08:32:35 51°8.951 2°34.238 3.9 310 7.7 102170 95
2004-03-18 08:32:40 51°8.951 2°34.238 3.8 310 7.7 102170 95
2004-03-18 08:32:45 51°8.951 2°34.238 3.4 308 7.7 102170 95
2004-03-18 08:32:49 51°8.951 2°34.238 3.5 308 7.7 102170 95
2004-03-18 08:32:55 51°8.951 2°34.238 3.8 309 7.7 102170 95
2004-03-18 08:33:01 51°8.951 2°34.238 3.8 308 7.7 102170 95
2004-03-18 08:33:05 51°8.951 2°34.238 3.7 307 7.7 102170 95
2004-03-18 08:33:10 51°8.951 2°34.239 4.1 310 7.7 102170 95
2004-03-18 08:33:15 51°8.951 2°34.239 4 308 7.7 102170 95
2004-03-18 08:33:19 51°8.951 2°34.239 3.6 309 7.7 102160 95
2004-03-18 08:33:24 51°8.951 2°34.239 3.9 310 7.7 102160 95
2004-03-18 08:33:31 51°8.951 2°34.239 3.9 309 7.7 102170 95
2004-03-18 08:33:35 51°8.951 2°34.239 4.2 309 7.7 102170 95
2004-03-18 08:33:40 51°8.951 2°34.239 3.7 307 7.7 102160 95
2004-03-18 08:33:45 51°8.951 2°34.239 4 311 7.7 102160 95
2004-03-18 08:33:49 51°8.951 2°34.239 3.7 312 7.7 102170 95
2004-03-18 08:33:55 51°8.951 2°34.24 4 311 7.7 102170 95
2004-03-18 08:33:59 51°8.951 2°34.24 4 309 7.7 102160 95
2004-03-18 08:34:05 51°8.951 2°34.24 4.2 312 7.7 102160 95
2004-03-18 08:34:09 51°8.952 2°34.24 4.1 310 7.7 102160 95
2004-03-18 08:34:15 51°8.952 2°34.24 3.9 313 7.7 102160 95
2004-03-18 08:34:20 51°8.952 2°34.24 4 314 7.7 102160 95
2004-03-18 08:34:25 51°8.952 2°34.241 3.9 314 7.7 102160 95
2004-03-18 08:34:29 51°8.952 2°34.241 4 314 7.7 102160 95
2004-03-18 08:34:36 51°8.952 2°34.241 4.3 315 7.7 102160 95
2004-03-18 08:34:41 51°8.952 2°34.241 4.2 228 7.7 102160 95
2004-03-18 08:34:45 51°8.952 2°34.241 4.3 314 7.7 102160 95
2004-03-18 08:34:50 51°8.952 2°34.241 4.2 313 7.7 102160 95
2004-03-18 08:34:55 51°8.952 2°34.241 4.5 313 7.7 102160 95
2004-03-18 08:35:00 51°8.952 2°34.241 4.2 313 7.7 102160 95
2004-03-18 08:35:05 51°8.952 2°34.241 4.6 229 7.7 102160 95
2004-03-18 08:35:09 51°8.952 2°34.241 4.7 312 7.7 102160 95
2004-03-18 08:35:16 51°8.952 2°34.242 4.2 315 7.7 102160 95
2004-03-18 08:35:21 51°8.953 2°34.243 4.1 228 7.7 102160 95
2004-03-18 08:35:25 51°8.953 2°34.243 4.6 313 7.7 102160 95
2004-03-18 08:35:31 51°8.953 2°34.244 4.7 313 7.7 102160 95
2004-03-18 08:35:35 51°8.953 2°34.244 4.7 313 7.7 102160 95
2004-03-18 08:35:40 51°8.953 2°34.244 4.7 311 7.7 102160 95
2004-03-18 08:35:45 51°8.953 2°34.244 4.6 314 7.7 102160 95
2004-03-18 08:35:51 51°8.953 2°34.243 4.6 312 7.7 102160 95
2004-03-18 08:35:55 51°8.953 2°34.243 5 313 7.7 102160 95